Regional Weather Roundup
Issued by NWS

Home | Current Version | Previous Version | Text Only | Print | Product List | Glossary On
Versions: 1 2 3 4 5 6 7 8 9 10 11 12 13 14 15 16 17 18 19 20 21 22 23 24 25 26 27 28 29 30 31 32 33 34 35 36 37 38 39 40 41 42 43 44 45 46 47 48 49 50
541
ASUS43 KLSX 191107
RWRMO

WEATHER SUMMARY FOR MISSOURI
NATIONAL WEATHER SERVICE SPRINGFIELD MO
500 AM CST TUE NOV 19 2019

NOTE: "FAIR" INDICATES FEW OR NO CLOUDS BELOW 12,000 FEET WITH NO
       SIGNIFICANT WEATHER AND/OR OBSTRUCTIONS TO VISIBILITY.
       CURRENT SKY AND/OR WEATHER CONDITIONS ARE NOT AVAILABLE FOR
       CHILLICOTHE AND FARMINGTON.

MOZ001>031-035>038-043-044-053-054-191200-
...NORTHERN AND WESTERN MISSOURI...

CITY           SKY/WX    TMP DP  RH WIND       PRES   REMARKS
KANSAS CTY INT CLEAR     43  38  82 W8        29.84R
KANSAS C DTWN  CLEAR     38  34  85 SW7       29.84R
LEE`S SUMMIT   CLEAR     46  38  73 W6        29.84R
ST JOSEPH      CLEAR     38  35  89 CALM      29.84R
CHILLICOTHE      N/A     43  41  93 NW7       29.81R
KIRKSVILLE     CLOUDY    45  41  86 NW14      29.76R

$$
MOZ066>068-077>081-088>096-101>105-191200-
...SOUTHWEST MISSOURI...

CITY           SKY/WX    TMP DP  RH WIND       PRES   REMARKS
SPRINGFIELD    CLEAR     46  36  68 NW7       29.83R
JOPLIN         CLEAR     42  35  76 CALM      29.89R

$$
MOZ032>034-039>042-045>050-055>058-069>072-191200-
...CENTRAL MISSOURI...

CITY           SKY/WX    TMP DP  RH WIND       PRES   REMARKS
COLUMBIA       CLEAR     43  40  89 NW8       29.77R
JEFFERSON CITY CLEAR     45  40  82 NW5       29.78R
ROLLA          CLEAR     44  39  82 W13       29.77R
SEDALIA        CLEAR     43  40  89 W10       29.82R
WHITEMAN AFB   CLEAR     44  44 100 W8        29.78R
WARRENSBURG      N/A    N/A N/A N/A MISG        N/A
OSAGE BEACH    CLEAR     43  40  89 W7        29.82R

$$
MOZ051-052-059>065-191200-
...EAST CENTRAL MISSOURI...

CITY           SKY/WX    TMP DP  RH WIND       PRES   REMARKS
ST LOUIS INTL  MOCLDY    47  41  80 W5        29.70S
SPIRIT OF STL  PTCLDY    42  40  92 CALM      29.71R
ST CHARLES       N/A    N/A N/A N/A MISG      29.70S

$$
MOZ072>076-082>087-097>100-106>115-191200-
...SOUTH CENTRAL AND SOUTHEAST MISSOURI...

CITY           SKY/WX    TMP DP  RH WIND       PRES   REMARKS
CAPE GIRARDEAU FAIR      44  40  85 S3        29.74S
FARMINGTON     CLEAR     38  38 100 CALM      29.73S FOG
POPLAR BLUFF   FAIR      39  37  92 SW5       29.75S
WEST PLAINS    CLEAR     47  38  71 NW9       29.79R

$$




USA.gov is the U.S. government's official web portal to all federal, state and local government web resources and services.